Location: Proctor
(47.8934°N, 114.3048°W)
Time: 03:01:35
(UTC+00:00)

SO-50 - Visible Passes

Search period start: 02 July 2022 00:00
Search period end: 12 July 2022 00:00
Orbit: 586 x 697 km, 64.6° (Epoch: 01 July)

Date Brightness Start Highest point End Pass type
(mag) Time Alt. Az. Time Alt. Az. Time Alt. Az.
02 Jul ? 07:15:40 33° SE 07:16:23 35° ESE 07:20:48 10° NE visible
02 Jul ? 08:53:14 16° WSW 08:56:47 41° NW 09:01:25 10° NNE visible
02 Jul ? 10:35:45 10° NW 10:38:30 15° NNW 10:41:16 10° NNE visible
03 Jul ? 06:01:27 11° ESE 06:01:27 11° ESE 06:02:35 10° E visible
03 Jul ? 07:39:00 40° SSW 07:40:42 75° SE 07:45:34 10° NE visible
03 Jul ? 09:17:41 10° W 09:21:39 25° NNW 09:25:43 10° NNE visible
03 Jul ? 11:01:57 10° NNW 11:03:48 12° N 11:05:40 10° NNE visible
04 Jul ? 06:24:43 25° ESE 06:25:08 25° ESE 06:29:03 10° ENE visible
04 Jul ? 08:02:16 21° WSW 08:05:15 56° NW 08:10:04 10° NNE visible
04 Jul ? 09:43:33 10° WNW 09:46:44 17° NNW 09:49:58 10° NNE visible
05 Jul ? 06:47:52 37° S 06:49:21 53° ESE 06:54:04 10° NE visible
05 Jul ? 08:25:46 10° W 08:30:01 31° NW 08:34:24 10° NNE visible
05 Jul ? 10:09:43 10° NW 10:11:59 13° NNW 10:14:16 10° NNE visible
06 Jul ? 05:33:23 17° ESE 05:33:56 17° ESE 05:37:04 10° ENE visible
06 Jul ? 07:10:55 24° SW 07:13:46 77° NW 07:18:40 10° NE visible
06 Jul ? 08:51:25 10° WNW 08:55:00 20° NNW 08:58:40 10° NNE visible
06 Jul ? 10:35:48 10° NNW 10:37:20 11° N 10:38:52 10° NNE visible
07 Jul ? 05:56:16 27° SSE 05:58:02 37° ESE 06:02:28 10° NE visible
07 Jul ? 07:33:57 10° WSW 07:38:27 40° NW 07:43:05 10° NNE visible
07 Jul ? 09:17:28 10° NW 09:20:11 15° NNW 09:22:56 10° NNE visible
07 Jul ? 11:01:04 10° NNW 11:02:43 11° N 11:04:23 10° NNE visible
08 Jul ? 04:41:26 10° SE 04:42:47 12° ESE 04:44:27 10° E visible
08 Jul ? 06:18:56 19° SSW 06:22:21 78° SE 06:27:14 10° NE visible
08 Jul ? 07:59:23 10° W 08:03:20 25° NNW 08:07:22 10° NNE visible
08 Jul ? 09:43:40 10° NNW 09:45:30 12° N 09:47:20 10° NNE visible
09 Jul ? 05:03:45 14° SSE 05:06:46 26° ESE 05:10:44 10° ENE visible
09 Jul ? 06:42:15 10° SW 06:46:54 54° NW 06:51:43 10° NNE visible
09 Jul ? 08:25:16 10° WNW 08:28:25 17° NNW 08:31:37 10° NNE visible
09 Jul ? 10:09:24 10° NNW 10:10:53 11° N 10:12:21 10° NNE visible
10 Jul ? 05:26:24 10° SSW 05:30:59 54° ESE 05:35:44 10° NE visible
10 Jul ? 07:07:26 10° W 07:11:41 31° NW 07:16:03 10° NNE visible
10 Jul ? 08:51:26 10° NW 08:53:40 13° NNW 08:55:55 10° NNE visible
10 Jul ? 10:34:11 10° NNW 10:36:14 12° NNE 10:38:18 10° NE visible
11 Jul ? 04:12:25 10° SSE 04:15:34 18° ESE 04:18:47 10° ENE visible
11 Jul ? 05:50:41 10° SW 05:55:25 74° NW 06:00:20 10° NE visible
11 Jul ? 07:33:07 10° WNW 07:36:41 20° NNW 07:40:18 10° NNE visible
11 Jul ? 09:17:29 10° NNW 09:19:01 11° N 09:20:33 10° NNE visible
11 Jul ? 10:58:31 10° NNW 11:01:31 16° NNE 11:04:31 10° ENE visible
